This demonstration page uses our WeatherBlox Daily Observations layout. Learn more.

Left ArrowRight Arrow

Hourly Observations for January 31, 2019

Temp ( °F °C ) Dew Point ( °F °C ) Humidity (%) Winds ( mph kmh ) Pressure ( in mb ) Visibility ( mi km ) Precip ( " mm )
12:51 am 00:51 Cloudy 47 8.3 31 -0.6 54 54 N N/A 29.91 1013 10 16 N/A
1:51 am 01:51 Mostly Clear 46 7.8 31 -0.6 56 56 S 3 6 29.91 1013 10 16 N/A
2:51 am 02:51 Partly Cloudy 43 6.1 31 -0.6 63 63 ESE 3 6 29.91 1013 10 16 N/A
3:51 am 03:51 Clear 40 4.4 30 -1.1 68 68 SE 3 6 29.93 1014 10 16 N/A
4:51 am 04:51 Clear 39 3.9 30 -1.1 70 70 N N/A 29.93 1014 10 16 N/A
5:51 am 05:51 Clear 37 2.8 29 -1.7 73 73 E 3 6 29.96 1015 10 16 N/A
6:51 am 06:51 Clear 36 2.2 29 -1.7 76 76 E 5 7 29.98 1015 10 16 N/A
7:51 am 07:51 Sunny 39 3.9 29 -1.7 67 67 N N/A 30.00 1016 10 16 N/A
8:51 am 08:51 Sunny 48 8.9 30 -1.1 50 50 SSE 5 7 30.01 1016 10 16 N/A
9:51 am 09:51 Sunny 53 11.7 31 -0.6 43 43 SSE 7 11 30.02 1017 10 16 N/A
10:51 am 10:51 Sunny 58 14.4 30 -1.1 35 35 ESE 5 7 30.00 1016 10 16 N/A
11:51 am 11:51 Sunny 62 16.7 29 -1.7 29 29 S 7 11 29.97 1015 10 16 N/A
12:51 pm 12:51 Sunny 64 17.8 29 -1.7 27 27 SSW 5 7 29.94 1014 10 16 N/A
1:51 pm 13:51 Sunny 66 18.9 26 -3.3 22 22 VRB 5 7 29.91 1013 10 16 N/A
2:51 pm 14:51 Sunny 69 20.6 27 -2.8 21 21 N N/A 29.89 1012 10 16 N/A
3:51 pm 15:51 Sunny 67 19.4 28 -2.2 23 23 N N/A 29.90 1013 10 16 N/A
4:51 pm 16:51 Sunny 66 18.9 27 -2.8 23 23 NNE 3 6 29.90 1012 10 16 N/A
5:51 pm 17:51 Clear 61 16.1 30 -1.1 31 31 N N/A 29.90 1013 10 16 N/A
6:51 pm 18:51 Clear 55 12.8 30 -1.1 38 38 N 5 7 29.92 1013 10 16 N/A
7:51 pm 19:51 Clear 52 11.1 30 -1.1 43 43 NNE 5 7 29.92 1013 10 16 N/A
8:51 pm 20:51 Clear 49 9.4 30 -1.1 48 48 N 3 6 29.92 1013 10 16 N/A
9:51 pm 21:51 Clear 48 8.9 30 -1.1 50 50 N 7 11 29.92 1013 10 16 N/A
10:51 pm 22:51 Clear 46 7.8 30 -1.1 54 54 E 6 9 29.93 1014 10 16 N/A
11:51 pm 23:51 Clear 43 6.1 30 -1.1 60 60 N N/A 29.93 1014 10 16 N/A

Powered by AerisWeather